DW5683 Weather Reports


time (UTC)temp
F
wind
direction
speed
knots
gust
knots
rain 1hr
in
rain 24hr
in
rain mn
in
humidity
%
barometer
mb
20260510074537 64 0 0.0 0.0 0.00 0.00 0.00 78 1011.4
20260510073043 65 0 0.0 1.7 0.00 0.00 0.00 75 1011.6
20260510071540 65 0 0.0 0.0 0.00 0.00 0.00 75 1011.5
20260510070043 66 0 0.0 1.7 0.00 0.00 0.00 74 1011.5
20260510064540 66 0 0.0 0.0 0.00 0.00 0.00 74 1011.5
20260510063038 67 0 0.0 0.0 0.00 0.00 0.00 76 1011.4
20260510061537 68 0 0.0 0.0 0.00 0.00 0.00 76 1011.4
20260510060042 69 0 0.0 0.0 0.00 0.00 0.00 75 1011.4
20260510054539 69 0 0.0 0.0 0.00 0.00 0.00 73 1011.4
20260510053034 70 0 0.0 3.5 0.00 0.00 0.00 73 1011.3
20260510051539 71 0 0.0 0.0 0.00 0.00 0.00 71 1011.3
20260510050039 71 0 0.0 0.0 0.00 0.00 0.00 69 1011.2
20260510044536 72 0 0.0 1.7 0.00 0.00 0.00 69 1011.1
20260510043035 73 0 0.0 1.7 0.00 0.00 0.00 68 1010.9
20260510041540 74 0 0.0 2.6 0.00 0.00 0.00 66 1010.9
20260510040035 75 0 0.0 0.0 0.00 0.00 0.00 65 1010.7
20260510034538 76 0 0.0 2.6 0.00 0.00 0.00 63 1010.5
20260510033038 78 0 0.0 1.7 0.00 0.00 0.00 60 1010.3
20260510031537 79 0 0.0 0.9 0.00 0.00 0.00 57 1010.2
20260510030049 81 225 0.0 4.3 0.00 0.00 0.00 54 1010.0
20260510024535 83 0 1.7 5.2 0.00 0.00 0.00 52 1009.9
20260510023034 84 226 0.0 2.6 0.00 0.00 0.00 48 1009.9
20260510021540 85 0 0.0 2.6 0.00 0.00 0.00 45 1009.7
20260510020037 85 226 0.9 3.5 0.00 0.00 0.00 45 1009.9
20260510014536 86 0 0.9 3.5 0.00 0.00 0.00 44 1009.8
20260510013040 86 226 0.0 4.3 0.00 0.00 0.00 44 1009.9
20260510011546 87 226 0.0 4.3 0.00 0.00 0.00 44 1010.0
20260510010038 87 227 0.0 4.3 0.00 0.00 0.00 44 1010.0
20260510004537 87 0 0.0 3.5 0.00 0.00 0.00 43 1010.2
20260510003041 87 0 0.9 3.5 0.00 0.00 0.00 45 1010.1
20260510001537 87 0 0.0 4.3 0.00 0.00 0.00 45 1010.1
20260510000037 87 0 0.9 3.5 0.00 0.00 0.00 41 1010.4
20260509234539 88 230 0.9 4.3 0.00 0.00 0.00 44 1010.4
20260509233038 87 0 0.0 3.5 0.00 0.00 0.00 44 1010.6
20260509231542 87 230 0.0 2.6 0.00 0.00 0.00 44 1010.6
20260509230040 88 0 0.0 3.5 0.00 0.00 0.00 43 1010.7
20260509224537 88 230 1.7 4.3 0.00 0.00 0.00 44 1010.9
20260509223036 87 230 0.0 3.5 0.00 0.00 0.00 46 1011.0
20260509221535 87 230 1.7 6.1 0.00 0.00 0.00 48 1011.3
20260509220041 86 230 0.0 5.2 0.00 0.00 0.00 46 1011.4
20260509214541 87 0 0.0 7.8 0.00 0.00 0.00 45 1011.6
20260509213038 86 234 2.6 6.1 0.00 0.00 0.00 47 1011.7
20260509211537 86 0 0.0 4.3 0.00 0.00 0.00 47 1011.9
20260509210044 85 0 0.0 4.3 0.00 0.00 0.00 47 1012.0
20260509204541 86 231 0.0 4.3 0.00 0.00 0.00 50 1012.1
20260509203042 85 229 0.0 5.2 0.00 0.00 0.00 49 1012.3
20260509201537 83 0 0.0 3.5 0.00 0.00 0.00 52 1012.4
20260509200037 83 228 0.0 4.3 0.00 0.00 0.00 50 1012.5
20260509194537 83 0 0.0 2.6 0.00 0.00 0.00 51 1012.6
20260509193041 83 0 0.0 4.3 0.00 0.00 0.00 52 1012.9
20260509191540 83 0 0.0 4.3 0.00 0.00 0.00 55 1013.1
20260509190038 82 229 0.0 3.5 0.00 0.00 0.00 53 1013.3
20260509184551 81 229 0.0 3.5 0.00 0.00 0.00 57 1013.4
20260509183038 79 229 0.0 1.7 0.00 0.00 0.00 53 1013.5
20260509181550 80 229 0.0 3.5 0.00 0.00 0.00 55 1013.6
20260509180045 78 229 0.9 4.3 0.00 0.00 0.00 59 1013.6
20260509174537 77 0 0.0 3.5 0.00 0.00 0.00 58 1013.5
20260509173042 76 0 0.0 2.6 0.00 0.00 0.00 59 1013.6
20260509171542 75 0 0.0 2.6 0.00 0.00 0.00 61 1013.7
20260509170046 74 0 0.0 1.7 0.00 0.00 0.00 64 1013.7
20260509164541 74 230 0.0 2.6 0.00 0.00 0.00 63 1013.7
20260509163036 73 230 0.0 2.6 0.00 0.00 0.00 67 1013.7
20260509161536 70 230 0.0 2.6 0.00 0.00 0.00 68 1013.9
20260509160041 70 0 0.9 2.6 0.00 0.00 0.00 69 1013.9
20260509154543 69 0 0.0 1.7 0.00 0.00 0.00 72 1013.7
20260509153045 67 0 0.0 2.6 0.00 0.00 0.00 75 1013.8
20260509151537 65 231 0.0 2.6 0.00 0.00 0.00 79 1013.8
20260509150036 63 0 0.0 1.7 0.00 0.00 0.00 84 1013.7
20260509144541 61 0 0.0 2.6 0.00 0.00 0.00 89 1013.8
20260509143040 59 0 0.0 0.0 0.00 0.00 0.00 92 1013.8
20260509141538 56 0 0.0 0.0 0.00 0.00 0.00 91 1013.7
20260509140044 56 0 0.0 0.0 0.00 0.00 0.00 91 1013.6
20260509134540 55 0 0.0 0.0 0.00 0.00 0.00 91 1013.6
20260509133040 54 0 0.0 0.0 0.00 0.00 0.00 91 1013.6
20260509131540 55 0 0.0 0.0 0.00 0.00 0.00 91 1013.6
20260509130036 55 0 0.0 0.0 0.00 0.00 0.00 91 1013.6
20260509124541 55 0 0.0 0.0 0.00 0.00 0.00 91 1013.5
20260509123038 55 0 0.0 0.0 0.00 0.00 0.00 91 1013.5
20260509121544 56 0 0.0 0.0 0.00 0.00 0.00 91 1013.4
20260509120038 56 0 0.0 0.0 0.00 0.00 0.00 91 1013.5
20260509114540 56 0 0.0 0.0 0.00 0.00 0.00 91 1013.3
20260509113037 56 0 0.0 0.0 0.00 0.00 0.00 91 1013.2
20260509111538 57 0 0.0 0.0 0.00 0.00 0.00 91 1013.1
20260509110043 57 0 0.0 0.0 0.00 0.00 0.00 91 1013.0
20260509104536 58 0 0.0 0.0 0.00 0.00 0.00 91 1013.1
20260509103037 57 0 0.0 0.0 0.00 0.00 0.00 91 1013.1
20260509101547 57 0 0.0 0.0 0.00 0.00 0.00 91 1013.2
20260509100043 57 0 0.0 0.0 0.00 0.00 0.00 91 1013.3
20260509094541 57 0 0.0 0.0 0.00 0.00 0.00 90 1013.4
20260509093038 58 0 0.0 0.0 0.00 0.00 0.00 90 1013.5
20260509091536 58 0 0.0 0.0 0.00 0.00 0.00 90 1013.5
20260509090042 58 0 0.0 0.0 0.00 0.00 0.00 90 1013.6
20260509084545 58 0 0.0 0.0 0.00 0.00 0.00 90 1013.6
20260509083039 58 0 0.0 0.0 0.00 0.00 0.00 90 1013.7
20260509081539 59 0 0.0 0.0 0.00 0.00 0.00 90 1013.8
20260509080040 59 0 0.0 0.0 0.00 0.00 0.00 90 1013.8